Location: Unspecified
(0.0000°N, 0.0000°E)
Time: 15:56:44
(UTC+00:00)

Tiangong - Pass Details

Date: 14 September 2024
Orbit: 374 x 377 km, 41.5° (Epoch: 15 September)

Event Time Altitude Azimuth Distance (km) Brightness Sun altitude
Exits shadow 04:39:15 - 354° (N) 1,869 1.3 -19.0°
Reaches altitude 10° 04:41:20 10° 21° (NNE) 1,363 0.9 -18.5°
Maximum altitude 04:42:30 12° 43° (NE) 1,273 1.1 -18.2°
Drops below altitude 10° 04:43:40 10° 65° (ENE) 1,366 1.7 -17.9°
Sets 04:46:48 0° 100° (E) 2,219 3.3 -17.1°
